Theta_e
287 288 288 289 289 288 287 287 288 287 289 287 284 284 288 289 284 280 285 287 286 289 291 294 294 294 295 295 296 298 298 299 299 298 298 298 298 298 298 298 299 299 300 301 301 303 304 304 303 303 305 306 306 309 313 317 319 322 324 323 324 325 325 326 327 329 331 332 334 337 338 340 340 341 341 341 341 340 339 339 339 339 339 339 338 337 337
286 287 288 288 288 287 285 287 288 288 288 287 287 287 289 289 287 289 288 288 288 290 293 294 295 296 297 297 299 299 299 298 299 298 298 298 298 298 298 298 299 299 300 301 301 302 303 303 303 303 303 305 306 307 308 313 316 319 322 323 323 325 326 325 325 325 327 330 334 337 339 340 340 341 341 341 341 340 340 340 339 339 339 338 338 337 336
284 286 287 287 287 282 284 288 287 287 288 288 289 288 287 289 288 289 289 286 286 293 296 296 297 298 298 297 297 297 298 299 299 299 299 299 299 299 299 299 299 300 300 301 301 302 302 303 303 302 302 304 306 307 309 310 312 316 317 319 324 325 326 326 327 326 327 328 330 332 335 338 340 340 340 341 341 340 340 340 339 339 338 338 337 337 337
279 284 285 285 285 285 286 286 287 286 285 284 285 284 287 287 285 287 286 284 284 291 295 297 297 297 296 295 296 296 297 299 299 299 299 299 299 299 298 299 299 300 300 301 301 302 302 303 304 303 303 303 304 306 308 310 313 313 314 316 320 326 328 327 328 330 332 331 331 332 335 337 338 339 340 340 340 340 340 340 339 339 338 338 338 337 337
280 283 286 283 282 280 280 284 286 287 288 288 289 289 290 291 291 285 283 283 289 292 296 295 295 295 295 295 295 296 298 299 300 299 299 300 300 299 299 300 301 301 301 301 302 302 303 304 305 305 305 304 304 306 309 312 316 315 314 313 314 318 324 328 330 331 333 334 335 335 335 335 336 336 338 339 339 339 339 340 340 338 338 338 337 338 337
279 283 285 281 278 272 278 288 291 291 288 289 286 286 288 289 289 287 290 290 292 293 294 293 293 294 294 295 297 299 298 299 299 299 300 300 300 300 301 302 302 302 303 302 302 303 303 305 306 306 307 308 309 312 314 314 314 315 315 315 314 313 314 319 324 327 329 329 330 331 333 334 334 334 335 336 338 340 340 339 339 338 338 337 338 337 337
281 280 280 277 275 277 288 290 294 295 294 293 289 289 289 290 291 291 289 289 290 292 293 294 295 296 296 298 298 298 301 301 300 299 300 300 301 301 301 303 304 304 304 303 302 303 304 305 305 306 308 311 313 313 313 313 312 313 313 313 313 314 314 315 317 320 325 327 328 329 329 330 330 332 333 334 336 338 339 339 339 338 338 337 337 336 337
280 278 276 273 276 284 288 292 294 295 294 290 287 284 288 292 293 290 287 289 291 292 293 294 295 295 296 298 299 300 301 302 301 300 300 301 301 301 303 304 304 305 306 304 303 303 305 306 306 307 307 308 308 310 312 312 312 311 312 312 312 312 313 315 316 317 319 321 324 326 328 329 330 332 333 333 333 334 336 338 339 339 339 339 337 336 337
278 275 276 277 283 285 288 287 289 290 285 286 285 282 286 291 290 289 288 289 291 291 292 293 294 296 296 294 295 300 300 301 302 301 302 303 303 304 305 307 308 308 307 305 304 304 304 305 306 307 307 307 308 309 310 312 312 311 310 310 310 311 312 312 314 316 318 319 320 320 321 322 323 325 326 326 325 325 326 329 335 338 339 338 338 338 336
283 280 275 275 277 276 281 288 292 295 295 293 290 286 282 290 290 289 289 289 290 290 291 293 294 295 292 289 291 297 300 301 301 303 304 304 304 305 306 310 310 307 305 304 305 305 304 305 306 307 308 308 308 309 310 311 311 310 310 310 311 311 310 310 311 312 315 317 319 320 320 320 320 321 322 324 326 327 326 325 325 328 331 336 339 338 336
281 279 277 276 275 278 285 288 291 293 293 291 290 284 278 286 289 291 290 289 290 290 291 292 293 291 286 287 291 297 299 300 301 301 302 304 305 305 307 309 309 308 305 304 305 305 305 304 306 307 307 308 308 309 310 311 311 310 310 310 310 310 310 310 310 312 314 316 318 320 320 321 321 321 321 322 324 325 326 327 327 327 325 327 332 337 338
279 279 279 276 277 279 287 290 290 292 292 291 282 272 272 284 290 291 290 289 290 291 291 292 291 289 285 287 292 298 299 300 301 301 302 303 304 305 307 309 310 310 310 307 305 304 304 305 307 307 307 308 309 311 312 312 312 312 312 312 312 311 311 311 311 312 312 314 316 319 320 321 322 322 324 324 324 324 324 325 326 327 327 327 326 328 329
280 282 280 277 277 284 291 291 292 291 292 288 278 273 281 291 291 290 290 290 291 292 291 291 289 292 293 294 297 299 299 299 300 301 303 304 305 305 306 307 307 308 308 310 309 308 307 307 307 308 308 307 309 311 312 312 312 314 315 314 314 313 312 312 311 312 312 313 315 317 320 321 322 321 321 322 324 325 324 325 325 327 328 328 328 327 330
278 277 278 275 279 287 291 292 292 292 286 276 276 287 293 291 290 291 291 290 292 292 291 291 292 293 295 297 298 297 298 298 299 300 302 303 304 305 305 306 307 307 306 307 307 309 312 312 311 309 307 306 308 310 311 311 312 314 314 314 314 314 313 313 312 312 313 313 315 318 318 318 319 320 321 322 323 324 324 324 324 325 325 325 326 327 326
278 275 274 274 273 283 292 291 286 289 280 281 287 289 290 290 290 290 290 291 291 292 291 292 293 294 295 295 295 297 297 297 297 299 300 300 301 302 303 305 307 307 305 305 305 306 310 312 312 311 310 309 306 305 306 308 310 311 312 313 313 313 312 312 312 313 315 316 316 318 318 319 320 320 322 321 321 321 322 323 323 323 323 324 323 323 325
279 280 279 279 285 290 294 289 281 286 287 289 290 289 287 289 289 289 290 290 291 291 291 292 293 295 294 294 295 295 296 296 297 298 299 300 301 302 304 306 306 306 305 304 304 305 306 310 311 310 310 310 311 309 310 312 312 313 314 314 314 312 312 312 314 317 318 318 318 318 316 316 316 318 319 319 319 320 320 320 321 322 323 323 322 322 322
284 283 285 289 295 294 295 293 291 290 291 291 291 290 289 288 289 290 289 289 291 291 291 292 293 293 293 293 294 293 294 295 296 296 297 298 299 300 302 304 305 305 304 303 302 302 303 304 305 309 311 310 310 311 313 314 315 315 315 315 314 315 317 318 318 320 319 316 315 316 316 316 316 317 317 318 318 319 319 319 319 320 321 321 321 321 321
294 294 295 293 293 294 295 294 293 292 291 291 291 290 288 289 289 289 289 290 291 291 292 291 291 291 292 292 292 293 294 294 295 296 296 297 298 299 302 304 304 305 304 303 302 301 301 302 302 302 308 313 311 312 314 315 315 315 315 314 313 314 315 316 316 312 313 313 313 314 315 315 316 317 318 317 318 319 319 319 319 319 319 319 320 320 320
288 284 293 292 291 292 293 292 292 292 291 291 291 289 289 289 290 290 291 291 291 291 291 291 290 290 290 290 291 292 293 293 294 295 294 295 296 298 300 303 303 303 302 300 301 300 300 301 301 301 302 309 312 313 313 314 314 315 314 312 310 310 312 314 313 313 314 312 310 312 314 315 317 318 318 318 317 316 317 319 320 319 319 318 318 318 319
284 285 290 291 292 292 293 291 289 289 290 291 290 290 290 290 290 290 290 291 291 291 290 290 289 289 290 290 290 291 292 293 293 294 293 293 294 297 302 303 303 302 301 299 299 299 299 300 300 300 300 303 311 314 315 314 315 314 312 312 312 312 312 312 312 311 312 305 308 313 314 318 318 318 318 318 317 317 317 318 319 319 320 318 318 318 319
284 286 287 289 288 289 289 290 290 289 290 290 290 290 290 290 289 289 290 290 290 290 290 290 289 288 289 289 290 290 291 291 293 293 292 292 293 296 301 302 301 300 300 298 297 298 298 299 299 298 298 300 304 306 312 315 317 316 314 311 314 315 314 313 313 311 314 314 312 312 314 316 318 320 319 319 318 319 320 321 321 321 321 321 320 321 321
277 280 284 286 281 280 285 288 289 290 291 291 290 289 289 289 288 289 289 290 290 290 290 289 289 288 288 289 290 290 290 291 292 292 292 292 293 295 300 302 300 299 299 298 297 296 296 297 298 297 296 297 300 301 304 310 314 315 312 312 313 315 317 316 316 313 312 313 314 314 315 316 317 318 306 306 312 320 320 310 306 306 307 320 323 323 322
278 284 287 287 287 285 287 288 290 290 291 290 288 288 288 288 288 289 289 288 288 288 289 290 289 288 288 288 290 289 289 290 291 292 291 291 291 293 297 300 298 297 297 298 296 295 294 295 297 296 295 295 296 298 300 307 310 312 314 313 312 312 312 312 311 312 314 314 315 316 317 316 317 315 317 314 301 299 303 307 303 301 300 302 304 308 318
286 288 288 289 286 285 287 289 290 290 291 291 289 289 289 289 289 289 288 288 287 287 288 289 289 288 288 289 289 288 289 290 291 291 291 291 291 293 295 299 297 296 295 295 294 293 293 293 295 296 294 294 295 295 298 304 306 309 313 310 310 310 308 308 307 308 313 314 314 314 315 316 316 315 316 315 316 303 300 300 301 300 300 299 300 301 303
287 291 291 290 288 288 289 289 290 290 291 292 289 288 289 289 289 290 288 288 288 288 288 287 289 290 289 289 289 288 289 289 290 290 291 290 290 291 292 295 296 294 294 294 293 292 291 292 293 294 293 292 293 293 296 300 303 304 310 309 307 307 306 304 305 306 309 312 312 313 313 314 314 315 314 314 314 315 311 299 298 299 299 299 299 299 299
291 290 290 290 289 289 289 288 287 288 288 288 287 288 289 292 291 289 288 288 288 288 288 288 288 289 289 288 288 289 289 289 289 290 290 289 289 289 290 293 295 294 294 293 292 291 289 290 291 293 291 291 291 292 295 297 300 301 305 309 308 306 304 303 305 307 309 311 311 311 312 312 312 313 313 315 315 315 314 315 311 302 297 296 297 298 298
290 290 288 285 285 287 287 287 285 287 288 288 287 287 287 287 290 289 288 288 288 289 288 288 289 289 288 288 288 289 289 288 288 288 289 289 288 288 289 291 294 293 292 292 290 289 288 289 290 291 290 290 290 291 294 296 297 299 300 306 308 301 294 297 304 306 308 308 308 309 309 308 309 309 310 311 311 311 313 312 312 313 316 314 302 296 303
288 289 287 284 283 284 286 287 287 288 287 287 286 286 287 287 287 286 286 286 287 288 288 288 288 288 286 287 287 288 288 286 286 288 288 288 288 288 289 290 293 291 290 290 289 288 287 287 288 289 289 289 289 290 292 294 295 297 297 301 306 305 305 303 303 304 306 306 307 307 305 306 306 306 305 307 308 310 309 309 310 313 313 315 310 300 297
289 289 289 289 288 288 288 287 287 286 286 286 288 286 286 286 285 285 285 286 287 287 287 287 289 288 286 286 287 288 286 286 286 287 288 288 288 288 288 288 291 290 289 288 288 286 286 286 287 288 287 287 288 290 291 292 293 295 296 297 303 304 303 302 302 303 304 304 305 302 297 299 303 306 306 306 306 309 310 312 310 311 313 312 308 307 301
288 288 288 288 288 287 286 285 285 285 285 285 285 285 285 285 284 284 285 286 287 286 287 288 288 287 286 286 287 288 285 285 286 287 288 287 287 287 287 288 290 288 288 286 286 285 285 285 286 286 286 286 287 289 290 291 291 293 295 297 300 304 302 300 300 302 303 302 301 295 300 301 303 304 303 304 305 307 307 309 308 308 308 307 302 308 309
287 287 288 288 287 285 284 285 285 285 285 285 285 284 284 284 284 284 285 286 286 286 287 288 287 286 285 286 287 287 286 286 287 287 287 287 286 286 286 286 286 284 284 285 286 284 283 283 285 286 286 286 286 288 289 289 289 291 293 295 297 295 293 291 293 300 301 300 299 300 300 300 301 301 299 301 302 304 305 306 304 304 302 305 305 305 306
286 286 286 285 284 284 283 283 283 283 284 284 283 283 283 283 283 284 285 285 285 286 287 287 286 286 286 286 286 286 285 286 286 286 286 285 285 285 285 286 287 284 284 285 285 283 283 283 284 284 285 285 286 287 287 287 288 288 291 291 294 299 297 293 298 298 298 298 299 300 298 299 300 300 301 300 302 302 303 303 304 302 303 303 304 305 300
285 283 282 282 283 282 282 282 283 283 283 283 283 284 284 284 285 285 285 285 285 286 287 286 286 287 286 286 285 284 285 285 285 285 285 284 284 284 285 285 287 284 283 284 285 283 282 282 283 284 284 284 285 286 286 286 287 287 289 292 295 298 295 296 295 300 299 299 299 299 300 299 299 300 299 299 300 299 301 301 300 300 301 302 303 301 297
285 284 284 284 283 282 282 282 282 283 282 283 283 283 283 285 285 284 284 284 285 286 286 286 286 287 286 285 284 284 284 283 282 283 283 283 283 284 284 284 286 284 282 283 284 282 282 283 284 283 283 283 284 284 285 286 286 287 288 291 294 296 298 299 300 301 299 298 299 298 299 297 299 298 297 298 300 299 297 297 296 297 300 301 300 298 293
286 286 285 285 285 285 285 284 283 283 283 282 282 283 283 284 284 284 284 284 285 286 286 286 287 287 286 285 284 283 283 282 282 282 283 283 283 283 284 283 284 282 281 281 282 281 282 283 284 283 282 283 283 283 284 285 286 286 288 291 292 293 296 295 299 300 299 299 299 299 298 298 298 294 295 297 298 297 297 296 296 296 298 299 297 295 292
286 285 285 285 285 285 284 284 284 284 284 282 282 283 283 283 284 283 283 284 286 286 286 286 286 287 285 284 283 283 283 283 283 282 283 283 283 284 283 282 282 280 279 279 281 281 281 282 283 282 282 282 282 283 284 284 285 286 287 291 291 292 293 293 296 298 299 299 298 298 298 294 295 295 295 296 297 297 296 296 295 295 296 296 295 294 293
286 286 285 285 284 284 283 284 284 284 284 283 283 283 283 283 283 283 284 284 284 284 284 285 286 285 284 284 284 284 283 283 282 282 283 283 283 283 282 281 281 279 278 277 279 280 281 282 282 282 281 282 282 282 283 284 284 285 288 290 290 290 291 292 293 295 298 300 298 298 297 296 298 298 296 297 296 296 295 295 294 295 295 294 294 293 292
286 286 285 285 285 284 284 285 285 285 284 283 282 283 284 283 283 283 283 283 283 283 284 285 286 285 285 285 284 283 282 282 282 282 282 282 282 282 281 280 279 279 278 278 280 280 281 282 282 281 281 281 281 281 283 284 284 285 287 288 288 289 289 290 291 292 294 298 297 299 299 299 298 298 297 297 297 296 295 295 295 295 295 295 295 294 294
285 284 284 285 284 284 284 284 284 283 284 283 282 282 283 283 282 283 283 282 283 283 284 285 286 285 284 284 283 283 282 281 282 282 281 281 282 281 280 280 280 280 279 280 280 280 281 281 281 280 280 280 281 281 282 283 284 285 286 286 287 288 288 288 289 291 293 295 299 299 300 299 298 298 297 297 297 296 294 295 295 295 296 296 296 296 296
284 284 284 284 284 284 283 283 283 283 283 284 283 283 282 282 282 282 282 281 282 283 284 285 285 283 283 284 283 282 282 281 281 281 281 281 281 280 280 281 281 281 281 281 280 280 281 281 280 280 280 280 281 281 282 283 283 284 284 285 285 286 287 287 288 290 291 294 296 294 298 299 298 297 296 297 297 296 296 296 296 296 297 297 297 297 296
284 284 283 283 283 283 282 282 282 283 283 283 283 283 282 282 282 281 281 280 281 283 284 285 284 283 283 283 283 282 282 281 281 281 281 281 280 279 278 278 280 281 280 280 280 280 280 280 279 279 279 280 280 281 281 283 283 283 283 283 284 285 286 286 287 288 289 291 293 295 295 296 297 298 297 298 297 297 297 297 297 297 297 297 297 297 296
284 283 283 282 283 283 283 283 282 282 282 282 282 282 282 282 282 281 281 280 281 282 283 285 284 284 284 283 283 282 281 281 281 281 281 280 279 278 277 278 280 280 280 279 279 279 279 279 279 279 278 279 280 281 281 282 282 282 282 282 283 283 284 285 286 287 287 289 291 293 293 294 295 295 296 297 297 297 297 297 297 297 297 297 296 297 297
283 283 283 282 283 283 282 282 282 282 281 281 281 282 282 282 281 281 281 280 280 281 282 284 284 284 283 282 281 280 280 280 280 280 280 281 281 280 279 278 280 279 280 279 279 278 278 278 278 278 279 279 279 280 281 281 281 281 281 281 282 282 283 284 285 286 286 286 288 290 291 292 292 292 291 293 296 297 296 296 296 296 296 297 297 296 296
283 283 282 282 283 282 281 282 282 281 281 281 281 282 281 281 281 281 280 280 280 280 281 282 282 283 282 281 280 280 279 279 279 279 279 279 279 280 281 280 279 279 279 278 278 278 277 277 277 278 278 279 279 280 280 280 280 280 280 280 280 281 282 283 283 284 285 284 285 287 289 289 290 290 290 289 290 292 293 294 294 294 294 295 295 295 295
283 283 282 283 282 281 281 282 282 282 281 281 281 281 281 280 280 280 280 279 280 280 280 281 282 282 281 281 280 280 280 280 280 279 278 277 276 277 280 280 279 278 278 278 277 277 277 277 277 278 278 278 279 279 278 279 279 279 279 279 279 280 281 281 281 282 283 283 283 285 286 287 288 288 288 287 287 288 288 289 290 291 291 291 291 292 292
283 283 283 282 282 282 282 283 282 282 280 280 280 280 280 280 280 279 280 280 279 279 280 281 282 281 280 280 280 281 280 280 280 280 280 279 278 278 280 279 278 278 278 278 277 277 277 277 277 277 278 278 278 278 277 278 278 278 278 278 279 279 279 280 280 281 281 282 282 283 284 285 286 286 286 286 286 286 286 286 287 288 288 288 289 289 289
283 283 282 282 282 282 282 281 281 279 279 278 278 279 280 279 279 279 280 279 280 280 280 281 282 281 281 280 281 280 279 278 278 279 280 280 281 281 280 279 278 278 277 276 277 276 276 276 277 277 277 277 278 277 277 277 277 277 277 277 278 278 278 279 279 280 280 281 281 282 282 283 283 283 284 284 284 283 283 284 284 285 285 286 286 286 286
283 282 282 281 281 282 280 279 278 278 278 278 279 278 279 279 279 279 278 278 278 278 279 280 281 280 280 281 282 281 280 278 276 277 280 279 280 280 279 277 277 278 277 277 276 277 277 277 276 276 277 277 276 276 276 276 276 276 276 276 276 277 277 278 278 279 279 280 280 281 280 280 281 281 281 281 281 282 282 282 282 282 283 283 283 284 284
282 282 282 281 281 281 278 278 279 278 277 279 279 278 279 279 278 278 278 278 278 278 278 279 279 279 280 281 282 281 281 280 279 277 280 280 280 279 278 278 277 277 276 276 276 276 276 276 276 276 276 276 276 276 276 275 275 275 275 275 276 276 276 277 278 278 279 279 279 279 279 279 279 279 280 280 280 280 280 280 280 280 280 281 281 282 282
282 281 280 280 280 280 278 277 278 278 277 278 278 278 278 278 277 276 277 277 277 278 277 277 277 278 278 279 280 280 279 279 280 280 280 280 280 279 277 277 276 276 276 275 275 275 276 276 276 276 275 275 275 275 275 275 275 275 275 275 275 275 275 276 276 277 278 278 278 278 278 278 278 278 279 279 279 278 278 279 279 279 280 280 279 279 280
277 277 280 280 280 280 278 278 277 278 278 278 278 278 278 277 277 278 277 277 276 277 276 276 276 275 277 279 279 279 279 279 280 281 280 279 279 278 277 276 276 275 275 275 275 275 275 275 275 275 275 275 274 275 275 275 274 274 274 274 274 274 274 274 275 275 276 277 277 277 277 277 277 277 277 277 277 277 277 277 277 277 277 277 278 278 278
277 279 280 280 280 279 279 279 279 278 278 277 277 277 277 277 277 276 277 281 277 276 277 276 275 275 276 277 279 279 279 280 279 279 280 279 278 276 276 276 275 275 274 274 274 275 275 275 275 275 275 274 274 274 274 274 274 274 274 274 274 273 273 273 274 274 275 276 276 276 276 276 277 277 276 276 276 276 276 276 276 276 276 277 277 277 277
Wind_Speed
4 5 6 6 3 2 2 3 2 1 4 4 3 3 6 1 2 4 4 6 8 11 11 10 12 13 14 16 16 16 16 16 17 19 20 20 20 22 22 19 16 19 20 21 22 18 15 16 17 16 13 9 5 5 6 7 7 9 9 9 10 10 9 10 10 9 11 15 17 17 16 15 14 15 15 15 14 13 13 13 12 14 14 14 14 14 14
3 5 5 5 3 1 3 3 1 4 4 5 4 6 7 3 5 6 7 7 9 9 9 10 12 12 13 13 13 14 16 17 18 18 20 21 21 20 21 22 21 18 20 21 21 20 17 15 16 14 12 10 9 8 7 8 8 9 7 8 7 8 10 12 11 12 14 14 16 16 14 13 13 14 13 13 13 13 14 14 14 13 13 14 14 15 15
3 3 2 4 5 6 1 1 2 3 5 5 7 3 4 4 4 5 4 6 10 3 5 10 11 11 11 12 15 16 16 16 18 20 21 21 20 19 20 22 23 22 20 20 21 20 19 15 14 13 12 11 10 8 7 3 7 8 6 7 7 7 8 8 10 13 12 14 16 16 14 12 12 12 13 12 13 13 14 15 15 14 14 14 14 15 16
4 2 3 2 2 3 3 2 2 3 3 4 3 2 3 3 4 3 4 6 7 10 13 12 12 13 14 16 16 16 16 17 18 19 21 23 21 20 21 23 25 23 21 20 20 20 19 17 14 12 13 13 10 10 9 7 7 7 8 8 9 9 9 10 10 11 13 18 17 15 12 11 12 12 12 12 13 13 14 15 14 13 14 15 16 15 14
4 4 3 5 2 1 2 4 4 3 5 6 7 5 6 4 2 1 4 7 7 11 11 13 14 16 17 16 16 16 18 16 16 18 22 22 20 20 23 26 26 23 20 19 18 18 17 16 15 14 14 12 12 11 8 6 5 6 7 7 6 6 7 8 10 10 11 11 11 11 11 12 11 11 12 13 13 14 15 14 13 14 15 16 16 15 15
3 2 4 2 3 1 1 2 2 2 3 7 6 7 8 2 5 2 3 5 8 9 10 11 14 16 16 15 15 14 15 15 16 20 22 21 18 21 25 26 25 23 18 15 15 16 16 17 16 15 13 10 11 8 7 5 5 6 8 7 6 5 5 6 8 9 9 10 11 11 10 11 11 12 12 14 14 14 13 13 14 15 16 17 16 16 16
4 3 4 1 1 2 1 3 5 4 6 7 7 10 10 5 4 3 5 7 9 10 9 10 12 15 16 17 16 15 12 11 15 21 23 21 20 25 26 25 23 21 19 16 15 15 15 13 12 11 11 7 6 4 4 4 4 4 4 5 7 7 7 6 6 6 7 8 10 11 11 11 10 11 12 13 14 13 13 14 15 15 16 17 16 17 17
1 2 2 1 1 1 1 4 6 6 4 2 3 4 2 1 1 3 7 11 11 10 11 11 10 12 16 16 13 9 9 13 16 20 20 23 25 26 24 25 23 19 16 14 14 14 12 11 13 12 11 10 6 7 6 7 7 6 6 5 4 5 6 6 6 6 6 6 7 8 9 10 10 10 8 7 8 9 11 13 13 14 15 16 17 18 17
1 1 1 2 0 2 3 4 4 4 3 6 4 7 2 4 2 2 8 11 11 12 12 12 12 15 16 13 10 6 14 19 18 19 21 22 25 25 25 23 20 16 13 11 12 11 11 11 11 12 12 10 8 8 7 7 7 6 5 5 4 4 4 4 5 5 6 6 6 7 8 8 9 10 11 12 10 8 9 12 13 14 15 15 15 16 17
2 0 2 2 0 3 2 2 6 4 5 6 4 4 4 1 3 3 7 10 12 14 14 14 16 15 13 13 13 12 17 18 20 21 20 23 26 26 26 23 18 13 8 7 9 10 10 11 12 12 12 11 10 9 8 6 5 5 5 6 6 5 5 5 5 5 5 5 6 7 7 9 10 10 9 10 12 11 13 13 12 15 13 14 14 15 17
2 1 2 2 2 2 3 7 6 8 5 6 1 3 3 2 6 10 8 12 13 11 12 16 15 12 11 13 14 15 18 19 18 20 21 22 23 25 24 25 22 17 10 8 8 9 9 11 13 11 11 12 11 10 9 7 5 6 6 6 6 6 6 5 4 4 4 4 5 6 7 8 8 9 10 11 12 11 11 12 14 13 9 12 14 14 15
2 2 2 3 1 1 3 5 4 7 7 2 4 4 3 3 9 7 9 11 12 11 12 13 12 10 12 14 15 16 18 18 17 17 20 22 23 25 25 24 22 20 16 9 7 8 10 12 12 11 11 12 12 11 9 6 5 7 8 8 7 6 5 4 4 5 4 5 5 6 8 9 8 9 8 8 9 11 12 11 12 13 13 13 12 12 12
3 4 2 1 2 2 3 4 5 7 5 2 5 3 7 9 8 7 9 11 10 10 13 11 11 11 10 14 15 16 19 18 19 19 18 19 19 22 24 23 22 19 18 14 11 11 10 11 11 11 10 10 10 9 7 5 6 7 7 6 5 5 5 4 4 5 5 5 7 7 8 9 9 8 6 6 7 9 10 10 10 11 13 11 11 12 13
1 2 1 2 1 2 3 5 1 5 4 3 3 4 5 7 10 9 9 10 10 11 11 11 11 13 15 14 15 18 19 19 19 19 20 20 22 24 22 22 21 20 18 18 19 17 12 10 10 9 9 9 9 9 6 7 8 7 5 5 5 5 5 5 5 5 6 5 4 6 6 4 4 7 8 6 6 9 9 9 11 11 10 8 8 9 10
1 1 0 1 0 1 2 5 2 4 4 4 4 4 4 4 8 10 9 7 10 11 13 13 14 15 15 15 17 17 18 19 19 20 21 21 21 21 22 23 22 20 18 19 19 17 15 12 9 8 8 9 7 6 6 8 6 6 6 5 5 5 5 5 5 6 6 6 7 6 7 9 10 11 10 9 8 8 9 9 10 11 13 12 8 8 8
1 1 1 1 1 3 4 3 2 2 1 3 3 2 6 5 5 6 7 9 9 11 12 15 15 14 15 17 18 18 18 19 19 19 20 20 19 21 21 20 20 20 19 19 19 18 17 15 12 8 8 10 9 6 7 6 4 4 5 5 5 5 5 5 6 7 6 7 8 6 6 6 5 6 8 8 8 8 9 9 9 10 10 9 9 10 11
1 2 1 2 2 1 2 3 2 2 2 2 2 1 3 4 5 3 6 10 11 10 12 14 14 15 16 18 17 17 18 19 19 19 20 19 19 19 19 19 19 17 18 19 19 20 18 18 19 15 9 9 11 11 8 6 6 5 5 6 6 6 6 6 6 7 5 4 4 4 4 5 6 7 9 8 9 9 8 9 9 10 10 10 11 11 10
2 0 2 2 2 1 2 1 1 1 3 4 1 2 4 4 3 3 7 10 10 11 11 11 12 12 15 18 18 18 17 18 18 19 20 20 20 20 17 17 19 17 17 17 19 21 21 20 17 18 17 10 11 11 9 7 5 5 5 4 4 4 5 6 6 3 3 4 4 5 5 6 7 7 9 9 10 10 9 10 10 10 10 11 11 10 11
4 2 2 2 1 1 3 3 2 3 2 2 2 3 3 4 4 5 7 8 9 10 10 10 12 14 14 16 17 16 15 17 18 19 20 21 21 21 18 17 17 18 18 18 19 20 21 19 17 17 20 17 11 11 11 8 6 6 5 4 4 4 5 6 7 7 6 4 4 5 6 6 7 8 8 9 9 9 9 9 10 11 11 12 11 12 12
1 1 4 3 3 3 2 2 5 4 6 6 4 3 3 3 4 4 5 7 9 8 9 11 13 14 13 16 17 16 15 15 16 17 19 21 20 20 16 15 17 17 17 20 19 19 17 17 17 17 18 19 18 16 10 9 7 5 5 4 4 5 6 6 6 6 6 6 6 6 6 7 8 8 8 8 8 10 10 11 11 12 12 12 13 14 13
3 2 1 4 5 2 4 8 5 3 4 3 4 3 3 4 5 7 7 5 7 7 9 11 11 13 14 14 16 16 15 16 15 16 19 20 20 19 16 15 17 16 17 18 18 19 17 15 15 16 19 19 18 20 16 12 9 7 4 4 6 6 6 6 7 6 6 6 6 6 6 7 8 9 9 9 10 10 10 9 11 12 12 12 12 12 13
1 1 2 2 2 3 6 5 6 5 4 2 2 3 4 4 6 7 8 9 5 5 9 9 11 12 13 15 15 16 16 16 17 18 19 20 20 19 17 12 16 17 17 17 18 18 17 18 16 16 18 19 20 19 18 15 12 7 5 5 6 6 6 5 6 6 6 6 6 6 6 6 7 9 12 15 12 10 11 13 17 17 13 13 13 12 13
3 2 1 1 1 4 6 6 6 6 3 1 3 3 4 4 4 5 8 10 10 12 11 10 13 13 14 15 15 15 15 16 15 16 19 20 19 19 19 14 17 17 18 18 18 17 18 18 17 16 17 18 18 19 18 15 12 8 6 4 3 5 4 4 6 5 5 6 6 6 6 6 7 8 9 9 14 19 18 18 13 14 18 19 17 18 16
2 4 3 2 1 2 5 7 6 5 2 0 2 3 4 4 5 6 7 7 9 11 9 11 11 12 13 14 15 17 17 16 16 18 18 19 17 17 16 14 15 18 19 18 17 16 17 17 16 16 17 19 18 19 16 16 16 13 9 9 6 5 7 7 8 6 6 5 5 6 6 6 7 7 9 10 10 12 18 20 21 19 16 17 19 19 19
3 2 2 2 2 4 4 3 4 3 1 2 3 4 4 5 6 6 7 7 6 10 11 14 13 11 13 14 14 17 17 15 16 18 17 17 18 17 16 17 15 16 16 15 15 15 16 16 16 15 17 18 18 20 18 18 16 14 9 7 7 7 6 7 6 7 7 6 4 5 5 7 7 7 8 8 10 11 7 14 17 16 14 15 18 20 18
4 2 1 0 1 2 3 3 3 4 4 3 3 2 3 5 6 6 7 7 8 8 10 13 12 11 12 14 14 16 16 16 19 17 14 15 17 18 18 19 14 15 15 14 15 15 17 16 17 15 19 19 19 19 17 18 16 14 13 8 6 6 7 7 7 5 6 6 6 5 5 5 6 7 7 7 8 9 11 10 6 8 11 15 15 17 18
3 2 2 3 3 5 3 1 3 3 1 1 3 2 3 3 5 5 5 5 6 6 9 11 10 9 10 11 14 13 12 13 16 14 14 16 18 17 16 17 14 16 15 14 15 16 18 16 16 15 13 13 17 18 17 18 16 14 14 11 6 7 10 9 7 6 5 5 6 6 6 5 6 5 6 6 7 8 10 10 10 10 9 8 12 16 15
2 1 2 1 2 3 4 4 3 1 3 3 3 4 3 3 5 7 9 9 11 10 10 10 10 10 11 12 14 15 12 14 16 16 16 17 17 17 16 19 14 15 14 14 13 16 16 16 16 16 18 20 20 18 17 17 16 14 12 11 6 6 6 8 7 7 6 6 6 6 7 7 6 6 5 5 7 8 8 9 9 10 9 8 5 8 17
1 1 1 1 3 5 4 2 2 4 4 3 3 3 4 6 6 6 8 9 10 11 12 13 10 8 10 11 13 14 14 14 18 17 15 16 16 17 17 18 15 14 13 15 12 16 17 18 16 16 18 20 20 19 20 18 16 13 12 12 9 4 5 5 6 6 6 6 5 6 6 6 6 6 5 6 6 7 8 8 8 8 8 8 6 5 3
2 0 2 4 5 4 4 4 2 2 2 2 3 3 3 4 6 7 8 9 10 12 13 13 11 10 11 11 14 11 14 16 17 13 14 15 16 16 16 16 13 14 14 16 16 17 17 17 15 16 17 19 19 16 16 16 14 15 12 11 11 7 6 6 5 5 5 6 7 7 6 6 7 7 6 6 6 6 6 8 7 6 7 6 5 7 8
0 2 3 2 4 3 4 1 0 1 1 2 2 3 3 3 4 7 8 9 9 11 12 13 11 11 11 11 12 11 12 13 14 13 13 14 15 17 16 16 12 14 16 15 15 17 17 16 13 14 17 18 18 18 17 16 15 13 12 11 10 13 12 12 8 6 5 5 6 7 7 7 7 8 7 7 7 6 6 6 6 5 4 4 5 5 7
3 4 5 4 2 2 2 2 2 2 2 1 2 3 3 4 5 7 6 8 10 12 12 12 13 12 10 10 11 12 12 12 14 14 13 13 14 16 16 16 11 14 16 14 13 16 18 17 16 17 19 19 17 16 16 15 16 14 11 13 14 12 9 12 9 10 9 7 7 7 7 7 7 7 8 8 8 8 7 6 5 4 3 3 5 6 3
2 2 3 3 3 3 3 3 1 2 1 2 1 2 2 2 2 3 4 5 9 10 11 10 12 11 8 9 10 12 12 13 14 13 14 14 14 15 16 15 10 13 16 13 12 14 16 16 16 18 19 19 18 18 16 16 16 14 13 13 12 12 11 10 11 10 9 9 8 8 7 7 6 7 7 8 8 7 8 7 5 5 3 4 5 3 1
3 1 2 2 2 1 0 2 1 2 2 2 3 2 3 3 2 3 4 5 7 9 10 11 12 11 6 9 10 12 13 14 14 14 15 14 15 15 15 15 10 12 15 13 12 13 14 15 15 17 19 19 18 18 17 18 17 15 14 13 13 13 12 12 9 8 8 8 8 7 7 6 7 6 5 6 8 8 8 8 7 5 4 4 4 3 3
4 3 3 2 2 1 1 2 1 1 2 4 4 3 2 1 2 3 3 4 7 7 9 10 12 10 7 9 10 10 12 14 15 16 16 15 15 15 16 16 14 15 16 13 12 13 16 16 15 18 19 18 17 16 16 17 16 15 13 13 14 12 12 11 11 7 7 7 7 7 7 7 7 7 6 6 6 7 8 7 7 6 6 5 5 4 4
4 3 2 1 1 2 3 2 1 1 1 1 2 2 1 2 3 3 4 4 4 5 7 10 11 9 8 10 9 10 11 11 12 14 15 16 16 14 16 16 16 16 17 15 12 15 17 14 19 26 18 15 15 17 16 17 15 14 13 13 12 12 11 11 11 10 5 5 6 6 6 7 6 5 6 6 5 6 6 6 7 7 6 6 5 3 2
4 3 2 2 0 1 2 1 0 0 1 1 1 1 2 3 3 4 3 4 4 5 7 9 10 9 10 10 8 6 7 8 10 11 12 12 13 14 15 15 15 16 17 14 16 18 17 15 22 28 18 13 14 16 16 24 17 15 13 13 12 11 11 11 11 11 10 7 6 6 7 6 6 7 6 7 7 6 5 5 4 5 5 4 4 4 3
3 3 3 1 0 2 1 0 0 1 2 2 2 2 3 3 3 3 4 4 4 6 6 8 8 8 10 10 6 7 8 9 10 13 13 14 14 14 14 13 13 14 14 14 17 16 14 17 23 19 15 14 15 15 18 25 25 16 11 12 11 11 11 11 11 11 11 10 5 7 7 8 7 7 7 7 7 7 6 6 5 5 4 3 3 3 2
1 1 2 0 2 3 1 1 1 2 2 0 2 3 3 3 3 4 4 4 4 6 7 8 7 9 11 10 8 8 8 9 10 12 14 14 13 13 12 12 12 15 13 14 16 14 14 15 16 15 14 14 16 15 18 22 25 14 12 11 12 11 11 11 11 11 11 10 8 7 6 7 8 8 7 7 7 6 6 7 7 6 6 6 5 5 4
1 1 1 1 2 1 1 1 2 3 1 0 0 2 2 3 3 3 3 4 4 6 8 7 8 9 11 10 8 9 8 9 10 11 14 13 12 12 11 9 11 14 14 17 15 13 16 19 16 12 13 14 15 13 14 19 19 12 12 12 11 11 11 11 11 11 11 11 11 11 9 8 6 6 6 6 7 7 7 7 8 7 7 7 6 6 4
2 2 1 3 2 1 2 1 2 1 1 2 1 1 2 3 2 3 3 3 4 6 7 6 7 9 11 9 9 8 8 8 9 10 12 11 11 12 11 12 14 14 15 16 15 15 15 12 13 13 13 15 13 16 15 17 14 12 11 11 11 12 12 12 11 11 10 11 10 10 10 9 9 8 7 7 7 6 7 7 7 7 7 7 7 6 5
4 3 2 3 2 2 1 1 2 3 4 3 2 2 3 2 3 2 1 3 4 5 5 6 7 9 8 9 7 8 8 8 9 9 11 10 12 11 11 12 14 12 19 19 17 15 12 12 13 12 15 16 13 22 24 13 11 11 11 11 11 10 11 11 11 11 11 10 10 9 10 10 10 10 9 7 7 7 7 7 7 8 7 7 7 7 7
3 2 3 4 1 1 3 3 1 1 2 4 2 1 2 1 2 2 2 3 4 4 4 5 8 8 8 8 7 9 8 8 9 10 8 6 8 8 10 12 12 13 20 15 15 11 12 11 12 12 21 19 17 25 20 11 11 11 11 10 11 11 10 11 11 10 11 10 10 10 10 10 10 10 11 10 9 9 8 9 9 8 8 8 8 8 8
3 4 4 3 2 2 3 1 1 2 3 3 1 1 1 1 2 2 2 3 4 4 4 5 8 7 7 7 8 8 8 9 9 9 9 8 8 7 8 9 9 13 19 15 12 11 11 12 12 20 24 25 25 22 12 11 11 10 10 10 11 10 9 10 11 12 11 11 10 9 10 10 10 9 10 10 10 10 10 10 11 11 10 10 10 9 9
5 4 4 2 4 4 1 0 1 1 2 2 1 1 1 2 1 1 3 3 3 3 3 5 6 6 7 7 6 6 7 7 8 9 10 12 12 11 10 10 11 11 15 19 11 11 10 12 19 26 23 25 23 20 11 10 11 10 10 11 11 9 9 10 11 10 10 11 11 10 9 9 10 10 9 9 10 10 11 11 11 11 10 10 10 10 11
3 3 2 5 4 2 1 0 0 0 1 2 2 3 2 1 2 3 2 1 2 2 3 4 3 6 7 7 4 5 5 6 6 6 6 7 10 10 10 11 10 11 20 20 10 11 11 20 24 24 25 23 21 13 11 11 11 10 11 11 11 11 11 10 10 10 9 9 10 10 10 9 10 9 9 9 9 9 10 11 10 10 10 10 10 10 10
3 1 4 4 3 2 0 2 2 2 2 3 3 2 1 1 2 1 1 2 1 1 2 2 2 4 4 5 5 6 6 6 5 4 6 7 8 7 8 11 11 15 15 11 11 10 11 14 18 23 24 23 18 11 11 11 11 11 11 11 10 9 10 10 11 10 9 9 10 11 11 10 10 10 10 10 11 10 10 10 10 10 9 10 10 11 11
1 2 4 3 2 0 3 3 2 1 1 1 2 3 1 1 1 1 3 3 2 2 2 2 2 3 4 5 2 3 3 5 8 7 6 8 7 6 7 7 10 14 15 12 13 12 18 22 23 23 24 21 12 11 11 11 11 11 11 11 12 11 11 10 10 10 10 10 10 9 10 11 11 11 11 10 10 10 10 9 9 9 9 10 10 10 11
4 5 4 3 1 2 3 1 0 1 2 2 3 2 1 1 1 3 4 4 3 2 2 1 3 4 5 4 3 2 2 2 3 7 7 7 7 7 7 8 11 13 11 10 11 10 15 20 20 22 21 16 11 11 10 11 11 11 11 11 11 11 11 11 10 10 10 10 10 10 10 11 11 10 10 11 11 10 10 9 10 9 9 8 8 9 9
5 4 3 2 1 1 3 1 0 2 3 4 3 2 1 1 5 4 3 3 2 1 1 1 2 4 4 4 3 2 1 3 4 5 5 6 7 6 7 7 8 12 12 10 10 10 12 17 17 17 14 11 11 10 10 11 10 11 11 12 11 10 12 13 12 13 11 11 10 10 11 10 11 12 11 10 11 11 10 10 10 11 16 12 10 9 9
4 4 3 3 3 2 3 3 3 6 5 5 4 3 1 2 1 3 3 1 0 1 0 1 1 2 3 4 3 3 3 4 4 5 5 6 5 6 7 6 8 8 9 10 9 10 10 10 10 11 12 11 10 11 10 11 10 11 11 11 12 11 11 12 11 11 11 11 10 10 11 11 11 11 10 10 11 11 11 10 10 10 10 10 9 9 9
5 4 3 2 1 2 2 3 5 4 4 4 5 2 1 1 1 2 3 2 2 1 1 0 2 2 2 3 3 3 3 5 4 4 5 6 5 3 5 6 6 7 8 9 9 10 9 10 10 12 12 10 10 10 11 14 11 10 11 11 11 11 12 11 11 11 11 11 11 11 11 10 10 11 10 10 11 11 11 10 10 10 10 9 9 9 9
Wind_Direction
250 259 277 278 295 204 234 172 204 142 274 311 295 247 253 244 224 255 289 308 307 308 311 319 318 321 314 309 308 305 302 301 307 311 311 309 307 310 313 315 313 309 304 303 303 303 303 305 304 296 282 279 260 230 236 219 209 210 209 205 206 202 192 183 190 211 241 245 238 233 220 215 209 209 210 210 211 210 207 207 208 209 208 206 205 206 208
273 283 280 318 312 6 54 108 287 241 269 281 275 273 278 244 252 260 275 286 290 295 305 311 308 308 306 304 303 305 309 311 310 309 306 304 304 305 307 309 309 303 299 297 297 298 297 296 299 298 291 281 275 264 227 226 219 217 192 209 203 203 191 186 195 210 219 236 245 236 226 214 212 212 212 212 211 210 210 211 210 208 208 207 208 208 209
290 270 338 58 82 119 116 216 226 263 271 283 270 266 290 287 264 278 270 290 297 284 298 303 303 303 303 307 313 315 312 311 312 310 308 304 299 299 301 303 303 301 294 291 291 292 291 291 290 294 293 289 285 280 273 208 229 236 213 212 213 203 209 209 205 208 215 229 235 236 224 217 215 213 212 212 211 211 212 212 212 210 207 207 209 211 210
298 293 84 67 87 119 128 35 333 312 330 316 304 304 266 291 267 268 298 307 315 319 323 316 309 312 317 317 317 318 315 312 310 311 310 304 299 297 297 298 299 296 292 286 285 284 286 287 285 287 289 288 275 259 256 232 191 207 206 210 211 206 206 220 226 221 211 218 223 227 226 218 218 216 215 213 213 213 213 214 213 210 209 211 212 211 212
266 258 68 129 144 48 16 353 304 298 279 255 271 269 279 259 218 153 346 309 298 307 313 314 316 317 317 320 321 317 309 306 306 313 311 302 298 296 294 293 295 292 286 280 276 278 278 281 282 279 278 279 267 242 230 228 162 173 185 192 194 186 187 192 215 225 230 236 239 237 231 227 224 221 219 217 216 214 214 214 212 211 211 212 214 212 212
263 284 315 140 91 73 180 240 211 201 257 288 295 289 291 258 152 205 184 264 294 299 311 314 313 314 312 310 306 304 303 309 314 317 311 303 295 292 293 293 290 286 281 270 267 266 272 276 274 274 272 272 260 226 204 205 180 180 161 171 166 181 189 189 197 209 221 228 238 243 242 239 233 227 223 223 220 216 216 213 212 212 212 213 213 212 213
277 307 353 45 135 184 242 290 285 254 258 263 256 274 280 266 210 272 299 303 311 308 303 304 305 305 303 304 307 304 304 309 316 317 315 314 308 301 297 295 290 283 276 265 260 264 266 267 272 273 277 251 250 263 222 201 209 188 202 170 169 170 179 193 190 194 205 214 226 234 236 237 240 241 236 233 227 221 218 216 214 213 212 212 213 214 214
343 19 19 27 270 185 213 272 283 277 282 283 312 288 292 190 182 258 304 310 307 309 312 313 313 308 306 303 302 301 312 325 322 321 320 318 313 308 308 307 301 287 273 255 250 255 262 277 281 279 273 275 264 242 229 216 207 204 189 190 199 185 178 181 184 189 194 207 218 225 225 223 224 228 232 241 260 261 244 228 220 218 217 213 212 213 212
227 206 180 214 5 343 299 332 330 347 321 309 314 290 257 211 206 295 314 311 316 320 320 321 323 320 313 308 308 329 334 331 323 319 318 317 313 314 314 311 302 292 275 250 245 250 263 265 272 281 285 285 275 263 246 227 209 199 187 199 210 209 209 206 202 198 193 199 209 218 225 232 232 230 224 224 221 223 256 275 263 234 220 214 215 213 211
136 118 346 356 350 237 266 246 270 285 263 257 233 161 283 308 260 305 328 320 325 326 324 329 330 325 319 324 326 336 335 329 324 320 320 324 324 327 327 327 334 315 285 262 258 252 258 268 273 277 282 283 280 269 254 236 217 213 196 210 217 216 223 222 218 219 215 206 214 221 221 225 230 233 234 235 234 213 211 215 241 268 265 245 224 215 213
89 111 167 217 214 219 222 294 299 291 283 285 125 130 270 245 332 349 337 327 324 324 328 328 330 332 329 321 319 331 331 327 325 324 327 324 323 328 332 341 344 335 301 268 263 263 266 269 274 280 283 287 282 265 257 246 213 212 217 223 222 219 230 234 234 232 227 228 224 231 236 235 229 227 224 221 226 222 216 217 214 219 234 270 263 241 225
215 166 167 256 195 177 291 282 295 292 304 312 77 350 265 313 352 331 331 322 321 323 332 327 323 329 324 322 317 322 324 323 323 326 322 325 330 330 332 341 345 345 342 325 296 280 279 278 283 284 285 286 277 265 258 243 221 222 224 222 220 213 219 222 223 226 225 227 233 232 237 241 238 234 230 226 227 225 228 224 223 224 213 206 234 266 268
210 176 264 59 309 284 269 290 309 311 334 70 65 241 287 331 331 326 326 320 318 330 329 331 320 320 309 303 306 319 322 324 326 327 325 324 328 329 334 339 343 349 345 341 333 318 301 296 294 291 289 284 277 266 260 256 244 233 229 233 237 237 231 233 236 236 232 221 232 237 232 238 244 246 237 228 228 233 234 234 238 240 234 227 214 222 238
259 212 168 228 196 234 242 295 349 348 53 26 273 282 311 320 324 324 324 319 326 327 324 319 314 310 311 312 324 326 327 329 327 326 326 329 334 332 333 337 346 348 346 345 344 336 322 310 309 311 307 291 274 277 273 259 252 248 247 245 248 250 247 244 246 246 246 239 207 217 221 224 255 265 262 238 217 227 228 230 232 231 245 246 240 228 224
10 42 64 10 242 233 320 322 17 13 97 225 233 280 296 309 313 318 324 331 324 329 320 319 313 312 321 332 330 327 328 331 331 329 330 335 333 330 330 337 347 346 348 346 343 339 329 318 311 311 317 312 304 297 287 280 292 300 284 271 258 256 255 252 251 251 249 225 199 195 206 206 208 222 233 235 222 214 214 216 222 227 231 234 228 247 252
229 248 240 135 228 301 334 80 132 273 206 229 259 316 320 315 309 314 327 326 325 323 320 320 321 324 331 332 333 333 332 332 331 330 331 331 329 332 330 337 346 346 348 347 345 341 342 340 323 318 319 311 304 297 288 279 289 300 305 296 280 264 258 254 253 252 240 227 221 220 219 228 231 224 234 237 234 220 220 214 217 222 225 218 204 217 224
106 240 168 286 263 197 6 96 171 205 273 293 289 288 271 300 312 311 329 323 320 324 323 322 329 333 336 332 333 334 330 331 331 331 331 330 330 329 326 339 343 347 349 343 342 345 346 349 349 335 319 308 302 300 295 297 285 278 266 259 255 256 257 257 253 250 252 258 249 241 229 196 214 226 234 231 232 228 214 223 222 221 222 218 214 216 217
169 212 184 161 294 351 172 227 206 329 323 309 310 295 319 296 289 309 329 320 317 321 329 327 335 337 335 332 334 331 330 332 331 329 331 331 329 330 325 343 349 348 345 342 347 348 345 349 346 345 329 313 306 297 300 297 292 289 288 300 301 293 293 288 283 292 262 236 237 242 244 223 216 218 223 224 223 226 212 217 212 205 207 210 214 206 206
140 244 207 219 256 270 187 238 278 343 332 287 267 299 281 296 320 330 335 324 318 318 327 340 338 337 337 335 331 329 328 331 331 331 333 332 331 330 328 345 350 350 350 345 346 348 346 345 347 345 337 325 303 294 290 290 293 287 285 286 284 286 278 274 269 257 245 235 217 227 234 241 231 226 222 222 222 225 219 218 216 213 208 204 203 202 203
142 216 188 239 238 186 180 345 9 322 328 319 303 269 307 341 331 335 326 323 328 331 340 348 342 336 336 338 334 330 331 330 330 333 334 332 328 327 327 348 352 351 352 348 344 345 346 344 345 348 343 335 338 328 310 306 301 290 285 275 277 280 272 264 256 241 237 232 225 225 229 228 240 243 237 222 223 222 217 215 217 219 216 213 210 204 207
275 325 322 329 341 13 347 353 319 301 294 318 302 315 354 348 345 338 338 340 328 339 342 344 341 338 337 339 331 329 333 331 331 332 334 331 326 324 331 351 353 355 350 349 344 339 343 342 344 348 349 340 339 335 327 314 303 303 309 316 302 280 270 268 261 250 241 238 228 228 229 233 237 240 238 236 230 238 231 220 219 222 222 220 215 211 208
312 196 274 345 34 283 303 300 296 314 316 277 288 338 353 350 347 343 343 341 345 348 343 343 343 339 335 336 334 334 333 328 326 333 335 330 329 327 329 349 353 353 351 349 347 345 342 341 344 351 350 344 337 335 326 322 316 312 299 294 286 287 288 277 271 256 243 236 237 238 240 240 251 257 250 242 240 236 248 233 227 233 224 224 217 211 217
228 233 235 213 204 251 243 260 298 318 294 290 357 340 339 336 346 351 353 348 349 351 348 352 344 337 335 335 334 333 331 328 326 332 333 334 330 325 330 341 353 354 352 352 349 347 345 339 341 347 349 344 334 329 322 319 321 326 320 281 313 316 307 298 298 298 275 270 261 256 251 251 253 259 272 262 241 240 241 253 246 233 236 240 238 222 214
175 189 206 203 183 236 275 292 304 294 276 307 339 351 353 357 358 358 3 357 349 343 343 344 340 330 333 336 338 336 332 327 332 337 335 333 329 325 331 338 354 352 354 352 349 347 342 338 336 342 347 343 334 326 323 328 343 339 11 18 15 12 355 334 326 318 301 282 276 270 270 259 255 255 259 272 275 234 231 239 241 241 240 238 242 244 234
209 192 193 209 217 264 268 276 283 284 329 343 25 22 10 4 0 8 0 351 352 344 343 339 333 336 338 336 338 333 330 330 338 333 328 333 334 333 334 337 352 354 352 348 346 346 343 336 334 340 346 341 336 333 331 336 343 340 349 8 12 2 356 341 323 313 312 310 299 284 275 269 264 254 255 260 267 287 247 217 222 222 226 230 232 237 242
135 190 214 5 31 302 319 353 347 354 341 19 46 10 7 10 9 11 357 353 345 344 343 333 330 339 345 337 336 328 329 339 340 330 330 337 339 340 339 336 343 353 349 347 346 346 344 336 335 341 346 342 338 330 330 337 338 341 332 345 354 360 336 332 322 319 316 316 310 304 291 279 272 269 267 264 271 268 278 283 263 234 217 209 217 226 231
172 142 73 26 1 320 316 349 253 272 312 51 75 36 9 3 9 7 347 346 333 339 338 327 326 336 340 335 328 321 328 339 333 332 336 340 341 338 333 328 338 350 348 347 347 345 344 339 337 341 334 330 331 331 335 337 336 337 333 326 352 339 337 326 324 312 302 300 300 291 293 287 284 278 270 272 263 271 268 268 264 259 258 237 212 200 207
108 100 135 149 234 259 268 273 277 301 54 41 28 21 357 2 7 3 351 347 343 344 339 333 334 343 343 342 336 330 342 347 340 337 343 344 340 335 332 329 335 350 347 344 350 346 345 344 339 337 341 344 341 338 338 337 336 332 329 318 330 351 329 329 323 320 310 315 308 311 311 298 294 282 289 285 279 267 262 257 257 259 268 255 254 210 209
104 41 313 228 243 250 266 284 33 26 14 355 10 15 14 12 359 1 353 350 341 339 337 337 339 348 346 341 339 338 348 343 341 342 342 340 338 335 329 327 334 347 345 343 348 351 348 347 342 341 344 344 339 337 339 336 333 326 317 326 317 352 329 324 316 312 312 315 310 315 299 298 301 309 315 306 287 275 265 259 253 258 257 274 290 296 237
197 240 19 348 334 1 30 40 21 343 352 340 12 2 6 11 360 356 349 346 344 342 334 330 336 348 351 346 346 347 350 340 334 335 340 341 341 338 332 326 332 343 345 352 353 349 348 342 338 342 343 339 334 332 335 330 328 323 318 321 320 325 344 323 307 305 319 326 329 321 323 327 330 331 327 315 306 290 275 265 258 251 251 251 236 237 234
295 25 40 21 24 43 80 104 279 300 324 349 19 15 340 1 11 352 346 346 345 336 329 333 340 344 346 348 345 348 343 331 331 339 340 342 342 340 336 334 349 356 344 335 343 345 340 336 336 341 341 338 334 335 335 334 334 326 328 330 334 313 320 330 325 324 323 334 335 340 339 343 344 341 330 325 320 322 310 303 292 270 251 235 230 237 239
53 12 10 16 39 55 4 349 6 346 327 327 20 358 323 0 6 349 346 349 344 330 326 337 345 342 343 346 348 345 338 335 339 339 339 344 343 344 342 336 343 354 341 333 344 348 340 335 341 340 339 337 334 334 334 337 340 336 329 332 329 322 320 333 341 339 342 343 342 347 347 346 346 339 336 336 332 327 325 317 301 303 295 259 246 245 223
66 12 351 348 353 6 352 314 3 322 314 348 319 285 302 323 348 342 337 345 338 331 335 341 341 332 344 344 351 345 341 340 342 339 338 343 344 347 342 335 340 357 342 335 344 348 339 336 336 337 336 333 335 337 338 340 341 336 329 325 321 329 334 340 348 346 346 343 346 347 345 347 340 344 341 332 330 330 329 322 320 320 296 289 287 317 344
161 190 215 207 180 167 282 313 314 329 331 299 284 293 320 337 337 330 328 345 338 338 342 341 333 330 343 346 351 349 348 345 346 344 342 341 340 342 340 335 343 351 342 335 339 344 341 336 340 341 336 332 336 336 339 343 341 335 330 324 334 340 342 339 339 354 343 340 336 336 341 346 350 352 343 339 339 342 338 333 332 318 316 319 333 345 3
123 131 166 184 191 126 127 116 77 38 2 338 327 328 313 308 328 315 318 351 341 346 342 336 328 329 339 347 348 351 354 351 342 339 339 339 339 339 342 340 340 343 343 342 346 346 338 334 342 340 335 333 337 337 338 339 337 333 326 329 336 335 335 336 335 341 351 337 333 337 348 351 352 353 352 356 357 344 343 344 338 340 348 351 349 5 8
104 94 92 90 84 80 78 104 124 135 55 347 320 293 287 298 310 317 338 335 328 345 347 337 327 329 342 347 346 350 351 349 342 340 337 339 339 340 341 343 344 344 341 336 347 343 335 334 341 342 337 334 336 336 338 341 335 332 324 333 336 334 335 335 335 328 331 343 339 341 346 339 337 350 358 4 9 6 360 346 344 345 353 346 340 352 3
141 126 142 152 173 99 97 119 162 99 16 347 324 296 309 305 301 296 317 346 358 356 347 338 329 337 349 341 340 341 348 347 346 341 336 336 339 341 343 343 348 346 342 338 344 340 336 335 340 339 337 336 334 333 333 340 341 333 328 337 339 337 339 337 336 336 332 333 347 343 347 350 5 5 3 6 5 4 1 2 348 337 341 339 344 351 347
145 127 124 149 320 44 58 138 237 57 32 15 331 292 271 286 309 332 360 3 357 345 343 335 328 344 340 328 340 349 350 351 349 346 343 342 342 342 345 348 350 349 345 340 335 332 330 327 337 338 335 337 335 333 335 338 339 335 334 337 338 339 342 339 337 335 335 329 333 353 0 3 1 8 6 3 6 2 1 355 353 346 343 350 3 20 28
62 32 79 233 59 69 103 317 350 360 58 27 309 316 319 335 356 20 18 355 336 335 341 332 336 350 337 334 349 350 354 353 352 348 346 342 341 343 344 345 353 350 337 331 330 329 321 329 341 335 338 335 333 334 336 337 339 337 337 337 340 343 341 343 339 332 333 333 340 345 2 9 10 3 5 4 1 1 0 358 354 352 358 358 7 23 33
142 116 170 167 89 116 131 3 324 345 347 261 136 336 335 51 48 35 12 356 336 342 338 331 352 352 337 339 351 352 355 355 351 348 346 341 342 341 339 340 350 345 341 337 335 326 325 335 340 340 338 338 335 334 334 335 337 338 340 341 341 342 343 345 341 339 341 342 350 352 356 360 1 2 4 1 5 4 3 360 1 2 3 6 9 14 23
149 164 198 128 140 139 130 33 352 348 298 299 278 15 67 94 77 52 8 343 342 349 334 341 354 349 338 343 350 352 352 349 349 350 344 340 347 347 344 343 346 341 343 342 335 330 333 344 344 341 342 340 335 337 334 336 339 340 341 341 342 346 348 348 343 345 343 345 351 356 1 359 359 358 2 8 6 7 8 9 9 10 10 10 11 14 23
152 165 129 104 103 117 51 38 65 22 336 308 310 54 96 107 103 81 2 358 357 340 339 343 354 344 346 346 352 351 345 348 349 351 347 353 353 344 344 343 343 338 342 340 338 336 339 345 345 344 343 340 338 340 339 337 339 341 342 342 347 345 347 348 348 348 346 348 351 355 1 4 5 3 353 1 12 13 11 13 17 18 16 11 12 12 15
174 134 113 125 149 94 79 91 61 331 334 327 348 121 151 142 107 69 32 13 355 342 340 348 346 348 0 353 356 350 347 350 350 346 344 3 356 345 352 339 335 338 342 342 339 338 342 345 344 345 344 344 342 342 342 345 341 345 345 343 348 349 350 354 351 353 354 350 352 358 1 7 11 11 7 5 8 12 16 17 19 17 16 17 16 14 15
133 111 126 148 142 128 123 104 11 16 7 312 321 201 177 120 105 84 41 28 359 348 346 356 348 360 1 359 360 353 351 354 351 347 341 344 346 351 356 343 343 339 343 344 340 342 342 344 344 344 344 346 347 348 346 345 344 346 343 346 349 346 345 349 356 359 356 353 349 349 358 4 15 16 17 15 12 12 16 23 25 22 21 22 21 19 18
130 150 165 160 138 120 114 147 27 334 268 275 248 196 89 94 52 47 51 31 6 347 357 358 355 8 2 4 359 357 356 355 353 344 345 346 344 346 352 353 348 346 345 344 343 343 343 346 346 347 348 348 349 348 346 342 349 347 344 348 350 347 350 355 356 354 354 355 353 348 357 9 19 15 17 20 21 22 19 21 24 23 24 26 23 24 23
137 169 145 113 114 143 191 360 250 180 24 37 23 22 41 92 46 34 41 44 21 357 2 360 16 11 7 352 344 351 352 353 348 347 347 345 339 333 345 352 349 349 347 346 345 345 346 347 348 350 349 350 351 352 355 352 351 348 350 352 351 353 355 353 354 354 353 356 353 349 357 7 14 18 16 17 18 23 22 22 27 26 24 26 28 26 26
163 114 108 137 164 201 138 96 93 52 42 55 52 59 358 29 44 54 331 326 354 345 351 35 37 15 1 335 343 347 353 354 348 346 352 345 330 335 356 349 346 349 351 346 347 348 349 348 348 350 351 352 354 357 355 355 354 356 353 354 352 352 353 355 354 352 352 352 353 353 351 4 13 11 9 15 20 22 17 20 24 24 22 25 27 26 28
155 128 144 157 180 156 95 88 65 27 28 78 157 163 111 59 26 321 323 340 329 322 351 38 26 18 358 332 334 352 16 4 347 353 1 345 342 356 353 354 349 349 350 344 345 345 349 351 351 353 352 353 354 359 359 358 358 357 358 356 355 354 354 352 355 357 355 355 357 2 359 358 4 11 11 13 16 19 22 19 13 16 23 27 28 26 28
130 145 171 178 143 94 128 142 162 45 60 140 141 147 170 120 3 355 347 344 340 359 1 12 359 8 352 330 325 339 348 16 6 346 339 348 351 354 353 352 351 352 351 348 345 343 349 352 354 354 353 354 355 356 2 0 358 359 360 359 356 355 355 353 352 353 358 359 3 5 5 4 3 4 8 10 10 10 10 12 11 16 16 17 23 24 24
145 134 142 158 138 149 168 169 159 145 155 152 157 179 193 74 26 331 324 348 328 11 355 351 343 7 353 332 322 328 334 338 323 351 345 348 355 357 358 359 355 354 354 349 347 349 351 354 356 354 353 355 354 355 0 1 2 3 2 360 360 358 359 355 351 355 2 5 5 8 9 10 2 2 6 12 12 11 13 13 10 12 17 26 24 22 19
156 157 186 207 199 195 194 194 159 147 157 165 169 187 146 67 341 302 335 328 102 107 312 306 306 355 358 341 335 350 350 349 338 5 359 350 358 3 4 359 356 359 355 353 351 354 352 355 356 352 353 355 356 357 1 4 3 4 5 3 2 2 1 359 358 356 3 7 4 6 10 11 7 3 10 13 15 16 11 13 10 10 16 18 16 18 19
169 186 201 195 173 195 203 122 120 139 150 155 156 148 107 69 12 346 327 315 169 189 196 194 351 319 355 11 5 8 1 2 354 360 356 346 356 7 353 352 360 1 359 357 357 357 356 354 355 356 356 359 0 1 4 5 6 6 6 5 6 6 5 3 360 358 360 7 10 9 8 11 10 7 11 15 17 19 14 10 12 12 14 15 13 16 23